Ephrata, WA
on Sunday, February 3, 2013

Sunday
Previous Day Next Day
Daily Summary
 ActualAverageRecord
Temperature
Mean Temperature °F / °C 32°F / 0°C  
Max Temperature 34°F / 1°C 39°F / 4°C 54°F / 12°C (1962)
Min Temperature 23°F / -5°C 24°F / -4°C -19°F / -28°C (1950)
Degree Days
Heating Degree Days 36 33  
Month to date heating degree days 101 100  
Since 1 July heating degree days 3537 3808  
Cooling Degree Days 0 0  
Month to date cooling degree days 0 0  
Year to date cooling degree days 0 0  
Moisture
Dew Point 28°F / -2°C   
Average Humidity 89    
Maximum Humidity 96    
Minimum Humidity 82    
Precipitation
Precipitation 0.00 in / 0.00 cm 0.02 in / 0.51 cm 0.24 in / 0.61 cm (1990)
Month to date precipitation 0.00 0.07  
Year to date precipitation 0.19 0.98  
Wind
Wind Speed 2 mph / 4 km/h   
Max Wind Speed 10 mph / 16 km/h   
Max Gust Speed 13 mph / 21 km/h   
Visibility 9 miles / 15 kilometers   
Events     

Key: T is trace of precipitation, MM is missing value
Source: NWS Daily Summary
Time(PST)TemperatureDew PointHumidity Pressure Visibility Wind DirectionWind SpeedGust SpeedPrecipitationEvents Conditions
12:53 AM 25.0°F / -3.9°C 23.0°F / -5.0°C 92% 30.27 in / 1025.1 hPa 10.0 miles / 16.1 kilometers NNE 6.9 mph / 11.1 km/h - N/A   Clear
1:53 AM 24.1°F / -4.4°C 21.9°F / -5.6°C 91% 30.29 in / 1025.5 hPa 10.0 miles / 16.1 kilometers North 6.9 mph / 11.1 km/h - N/A   Clear
2:53 AM 25.0°F / -3.9°C 23.0°F / -5.0°C 92% 30.26 in / 1024.7 hPa 10.0 miles / 16.1 kilometers North 6.9 mph / 11.1 km/h - N/A   Clear
3:39 AM 26.6°F / -3.0°C 23.0°F / -5.0°C 86% 30.21 in / 1022.9 hPa 10.0 miles / 16.1 kilometers NNE 3.5 mph / 5.6 km/h - N/A   Scattered Clouds
3:48 AM 26.6°F / -3.0°C 24.8°F / -4.0°C 93% 30.21 in / 1022.9 hPa 10.0 miles / 16.1 kilometers NNW 4.6 mph / 7.4 km/h - N/A   Mostly Cloudy
3:53 AM 27.0°F / -2.8°C 24.1°F / -4.4°C 89% 30.25 in / 1024.4 hPa 10.0 miles / 16.1 kilometers North 4.6 mph / 7.4 km/h - N/A   Mostly Cloudy
4:53 AM 28.0°F / -2.2°C 26.1°F / -3.3°C 92% 30.25 in / 1024.2 hPa 10.0 miles / 16.1 kilometers Calm Calm - N/A   Overcast
5:53 AM 28.0°F / -2.2°C 26.1°F / -3.3°C 92% 30.25 in / 1024.1 hPa 10.0 miles / 16.1 kilometers NNW 4.6 mph / 7.4 km/h - N/A   Overcast
6:15 AM 28.4°F / -2.0°C 26.6°F / -3.0°C 93% 30.20 in / 1022.6 hPa 10.0 miles / 16.1 kilometers North 4.6 mph / 7.4 km/h - N/A   Overcast
6:33 AM 28.4°F / -2.0°C 26.6°F / -3.0°C 93% 30.20 in / 1022.6 hPa 10.0 miles / 16.1 kilometers NNE 4.6 mph / 7.4 km/h - N/A   Overcast
6:53 AM 28.0°F / -2.2°C 26.1°F / -3.3°C 92% 30.24 in / 1023.8 hPa 10.0 miles / 16.1 kilometers Calm Calm - N/A   Overcast
7:51 AM 28.4°F / -2.0°C 26.6°F / -3.0°C 93% 30.21 in / 1022.9 hPa 10.0 miles / 16.1 kilometers Calm Calm - N/A   Overcast
7:53 AM 28.9°F / -1.7°C 26.1°F / -3.3°C 89% 30.25 in / 1024.4 hPa 10.0 miles / 16.1 kilometers Calm Calm - N/A   Overcast
8:31 AM 30.2°F / -1.0°C 26.6°F / -3.0°C 86% 30.20 in / 1022.6 hPa 10.0 miles / 16.1 kilometers North 3.5 mph / 5.6 km/h - N/A   Scattered Clouds
8:34 AM 30.2°F / -1.0°C 26.6°F / -3.0°C 86% 30.20 in / 1022.6 hPa 10.0 miles / 16.1 kilometers North 3.5 mph / 5.6 km/h - N/A   Mostly Cloudy
8:53 AM 30.0°F / -1.1°C 27.0°F / -2.8°C 88% 30.26 in / 1024.6 hPa 10.0 miles / 16.1 kilometers NNE 3.5 mph / 5.6 km/h - N/A   Mostly Cloudy
9:48 AM 30.2°F / -1.0°C 28.4°F / -2.0°C 93% 30.21 in / 1022.9 hPa 10.0 miles / 16.1 kilometers NNE 3.5 mph / 5.6 km/h - N/A   Scattered Clouds
9:53 AM 30.9°F / -0.6°C 28.0°F / -2.2°C 89% 30.26 in / 1024.6 hPa 10.0 miles / 16.1 kilometers NNE 3.5 mph / 5.6 km/h - N/A   Scattered Clouds
10:00 AM 30.2°F / -1.0°C 28.4°F / -2.0°C 93% 30.21 in / 1022.9 hPa 10.0 miles / 16.1 kilometers NE 4.6 mph / 7.4 km/h - N/A   Mostly Cloudy
10:07 AM 30.2°F / -1.0°C 28.4°F / -2.0°C 93% 30.21 in / 1022.9 hPa 10.0 miles / 16.1 kilometers NE 3.5 mph / 5.6 km/h - N/A   Mostly Cloudy
10:53 AM 32.0°F / 0.0°C 28.9°F / -1.7°C 88% 30.27 in / 1024.9 hPa 10.0 miles / 16.1 kilometers NNE 3.5 mph / 5.6 km/h - N/A   Overcast
11:53 AM 32.0°F / 0.0°C 28.9°F / -1.7°C 88% 30.25 in / 1024.4 hPa 10.0 miles / 16.1 kilometers Calm Calm - N/A   Overcast
12:53 PM 34.0°F / 1.1°C 28.9°F / -1.7°C 82% 30.22 in / 1023.4 hPa 10.0 miles / 16.1 kilometers Calm Calm - N/A   Overcast
1:53 PM 34.0°F / 1.1°C 28.9°F / -1.7°C 82% 30.21 in / 1023.0 hPa 10.0 miles / 16.1 kilometers NNE 3.5 mph / 5.6 km/h - N/A   Mostly Cloudy
2:14 PM 33.8°F / 1.0°C 28.4°F / -2.0°C 81% 30.18 in / 1021.9 hPa 10.0 miles / 16.1 kilometers North 5.8 mph / 9.3 km/h - N/A   Overcast
2:53 PM 34.0°F / 1.1°C 28.9°F / -1.7°C 82% 30.21 in / 1023.0 hPa 10.0 miles / 16.1 kilometers NE 5.8 mph / 9.3 km/h - N/A   Overcast
3:53 PM 34.0°F / 1.1°C 30.0°F / -1.1°C 85% 30.20 in / 1022.7 hPa 10.0 miles / 16.1 kilometers NNE 3.5 mph / 5.6 km/h - N/A   Overcast
4:53 PM 34.0°F / 1.1°C 30.0°F / -1.1°C 85% 30.20 in / 1022.6 hPa 10.0 miles / 16.1 kilometers Calm Calm - N/A   Overcast
5:25 PM 33.8°F / 1.0°C 30.2°F / -1.0°C 87% 30.15 in / 1020.9 hPa 10.0 miles / 16.1 kilometers NNE 4.6 mph / 7.4 km/h - N/A   Overcast
5:53 PM 33.1°F / 0.6°C 30.0°F / -1.1°C 89% 30.19 in / 1022.4 hPa 10.0 miles / 16.1 kilometers NNE 3.5 mph / 5.6 km/h - N/A   Overcast
6:53 PM 34.0°F / 1.1°C 30.9°F / -0.6°C 89% 30.20 in / 1022.5 hPa 9.0 miles / 14.5 kilometers Calm Calm - N/A   Overcast
7:22 PM 33.8°F / 1.0°C 30.2°F / -1.0°C 87% 30.15 in / 1020.9 hPa 7.0 miles / 11.3 kilometers NNW 3.5 mph / 5.6 km/h - N/A   Overcast
7:53 PM 33.1°F / 0.6°C 32.0°F / 0.0°C 96% 30.19 in / 1022.1 hPa 5.0 miles / 8.0 kilometers Calm Calm - N/A   Overcast
8:37 PM 33.8°F / 1.0°C 30.2°F / -1.0°C 87% 30.13 in / 1020.2 hPa 6.0 miles / 9.7 kilometers Calm Calm - N/A   Overcast
8:53 PM 33.1°F / 0.6°C 30.9°F / -0.6°C 92% 30.17 in / 1021.7 hPa 7.0 miles / 11.3 kilometers Calm Calm - N/A   Overcast
9:53 PM 32.0°F / 0.0°C 30.0°F / -1.1°C 92% 30.18 in / 1021.9 hPa 8.0 miles / 12.9 kilometers Calm Calm - N/A   Overcast
10:53 PM 32.0°F / 0.0°C 30.0°F / -1.1°C 92% 30.16 in / 1021.3 hPa 7.0 miles / 11.3 kilometers Calm Calm - N/A   Overcast
11:53 PM 32.0°F / 0.0°C 30.0°F / -1.1°C 92% 30.15 in / 1021.0 hPa 6.0 miles / 9.7 kilometers Calm Calm - N/A   Overcast
Moon Phase
Feb. 03 Feb. 10 Feb. 17 Feb. 25 Mar. 04
Sunrise:07:20 AM (PST) Moon Rise:12:55 AM (PST)2/3
Sunset:05:03 PM (PST) Moon Set:10:41 AM (PST)2/3

Copyright © 2014 The Weather Underground, Inc.